www.pogodaiklimat.ru

Погода и климат >> Архив погоды >> Россия >> Архангельская область >> Малые Кармакулы


ПОГОДА в Малых Кармакулах

АРХИВ ПОГОДЫ в Малых Кармакулах

Время (UTC), дата Ветер
(напр.,м/с)
 
Видим.   Явления Облачность Т
(С)
Тd
(С)
f
(%)
Тe
(С)
Тes
(С)
Комфортность P
(гПа)
Po
(гПа)
Тmin
(С)
Tmax
(С)
R
(мм)
R24
(мм)
S
(см)
18 16.06 ЮВ 2 20 км 4/0
[Ci fib]
+5.5 +2.0 78 +3 +4 1017.8 1016.1
21 16.06 ЮВ 5 20 км 6/0
[Ac trans Ci fib]
+5.5 -1.2 62 +1 +2 1017.6 1015.9
00 17.06 ЮВ 6 20 км 9/0
[Ac trans Ci fib]
+7.9 -0.2 57 +4 +4 1017.8 1016.1
03 17.06 Ю 7 20 км в посл. час ливневой дождь 9/3 600 м
[Sc Ac trans]
+8.2 -2.2 48 +4 +5 1017.7 1016.0 +3.7 0.3
06 17.06 Ю 6 20 км {ливн. осадки} 8/0
[Ac trans Ci fib]
+8.3 -3.8 42 +5 +7 1017.6 1015.9
09 17.06 Ю 7
{10}
20 км 9/0
[Ac trans Ci fib]
+10.1 0.0 49 +7 +9 1017.6 1015.9
12 17.06 Ю 6
{11}
20 км 8/0
[Ci fib]
+9.3 -1.9 45 +6 +8 1017.9 1016.2
15 17.06 ЮЗ 5 20 км 8/3 300 м
[Sc Ac trans]
+8.1 -0.2 56 +5 +5 1017.9 1016.2 +10.7
18 17.06 ЮЗ 4 2000 м дымка 10/9 180 м
[St Ac und]
+8.9 +7.4 90 +6 +6 1017.7 1016.0
21 17.06 ЮЗ 3 500 м туман ?/? +5.9 +5.4 97 +2 +2 1018.0 1016.3
00 18.06 Ю 3 500 м туман ?/? +5.0 +4.5 97 +1 +1 1018.1 1016.4
03 18.06 ЮЗ 2 500 м туман ?/? +3.2 +2.7 97 0 0 1018.9 1017.1 +3.2
06 18.06 СЗ 2 500 м туман ?/? +3.7 +3.5 99 +1 +1 1019.7 1017.9 +3.0
09 18.06 С 4 500 м туман ?/? +3.1 +2.6 97 -2 -2 1020.0 1018.2
12 18.06 С 4 2000 м дымка {туман} 8/8 240 м
[St]
+5.1 +2.4 83 +1 +2 1020.6 1018.8
15 18.06 С 4 500 м туман ?/? +4.7 +4.2 97 0 0 1019.6 1017.8 +5.1
18 18.06 С 5 2000 м дымка {туман} 8/8 210 м
[St]
+4.7 +3.7 93 -0 -0 1019.0 1017.2
21 18.06 Ю 1 20 км 5/5 300 м
[Sc]
+4.4 +1.6 82 +3 +3 1017.7 1016.0
00 19.06 СВ 3 20 км 3/0
[Ac trans]
+5.9 +1.1 71 +3 +4 1017.7 1016.0
03 19.06 В 8
{10}
20 км 1/0
[Ac trans]
+6.3 +1.0 69 +1 +2 1016.5 1014.8 +4.0
06 19.06 В 11
{15}
20 км 1/0
[Ci fib]
+8.3 +0.6 58 +3 +3 1015.5 1013.8
09 19.06 В 13
{17}
20 км 3/0
[Ci fib]
+8.4 +0.6 58 +3 +3 1014.7 1013.0
12 19.06 ЮВ 14
{18}
20 км 1/0
[Ci fib]
+8.9 +1.1 58 +4 +4 1013.5 1011.8
15 19.06 ЮВ 14
{20}
20 км 3/0
[Ci fib]
+7.4 +0.9 63 +1 +1 1012.5 1010.8 +8.9
18 19.06 ЮВ 15
{21}
20 км 3/0
[Ci fib]
+6.4 -0.1 63 -0 -0 1011.0 1009.3
21 19.06 В 17
{25}
20 км 3/1 300 м
[Cu hum Ci fib]
+4.3 +0.9 79 -4 -4 1010.0 1008.3
00 20.06 В 18
{29}
20 км 4/3 300 м
[Cu hum Ci fib]
+3.2 +0.3 81 -6 -6 1009.2 1007.4
03 20.06 В 17
{25}
20 км 1/0
[Ci fib]
+5.8 -0.5 64 -1 -1 1006.6 1004.9 +3.2
06 20.06 В 19
{28}
20 км 3/0
[Ci fib]
+6.2 -1.0 60 -1 -1 1005.2 1003.5
09 20.06 В 20
{29}
20 км 6/0
[Ac trans Ci fib]
+7.1 -1.4 55 0 0 1003.1 1001.4
12 20.06 С 4
{22}
20 км 8/0
[Ac trans Ci fib]
+6.9 +0.6 64 +4 +7 1004.2 1002.5
15 20.06 СВ 4 20 км 9/3 300 м
[Sc Ac trans]
+7.0 +0.6 64 +4 +4 1003.4 1001.7 +8.0
18 20.06 СВ 10
{14}
20 км {ливн. осадки} 9/6 300 м
[Sc Ac trans]
+5.0 +0.6 73 -1 -1 1002.2 1000.5
21 20.06 В 13
{29}
20 км {ливн. осадки} 8/4 300 м
[Sc Ac trans Ci fib]
+3.3 +1.2 86 -6 -6 998.4 996.6
00 21.06 В 12
{25}
20 км {ливн. осадки} 10/6 420 м
[Sc Ac und]
+2.4 0.0 84 -6 -6 1000.6 998.8
03 21.06 СЗ 6
{14}
20 км 9/8 400 м
[Sc Ac trans]
+3.5 +1.4 86 -2 -2 999.4 997.6 +2.3 0.3
06 21.06 В 2
{28}
20 км 10/4 300 м
[Sc Ac und]
+3.3 +0.9 84 -6 -6 995.9 994.1
09 21.06 С 5
{17}
20 км 10/6 420 м
[Cu Sc Ac und]
+4.7 +1.9 82 0 +1 1001.4 999.7
12 21.06 В 18
{24}
20 км 10/5 300 м
[Cu Sc Ac und]
+5.6 +1.6 75 -2 -2 999.4 997.7
15 21.06 В 17
{24}
10 км слабый ливневой дождь 10/4 300 м
[Cb cap Ac und]
+3.9 +1.6 85 -5 -5 1000.1 998.3 +6.2 0.5
18 21.06 Ю 7
{28}
20 км {ливн. осадки} 10/4 300 м
[Cu Sc Ac und]
+6.3 +1.6 72 +1 +1 1003.9 1002.2
21 21.06 Ю 2 20 км 9/4 300 м
[Cu Sc Ac trans Ci fib]
+5.5 +2.0 78 +3 +3 1004.8 1003.1
00 22.06 ЮВ 4 20 км 8/3 600 м
[Sc Ac trans Ci fib]
+5.7 +2.0 77 +2 +2 1005.3 1003.6
03 22.06 В 2 20 км 4/1 600 м
[Sc Ci fib]
+5.9 +1.9 75 +4 +7 1006.6 1004.9 +3.3 0.4
06 22.06 З 3 20 км 3/3 300 м
[Cu Sc Ci fib]
+4.9 +2.7 86 +1 +6 1006.9 1005.2
09 22.06 З 1 20 км 6/3 600 м
[Sc Ac trans]
+7.7 +3.2 73 +7 +13 1007.9 1006.2
12 22.06 З 1 20 км 9/9 500 м
[Sc]
+7.7 +3.8 76 +7 +8 1009.2 1007.5
15 22.06 ЮЗ 2 20 км 9/9 480 м
[Sc]
+9.1 +6.1 81 +7 +8 1009.5 1007.8 +9.3
18 22.06 В 4
{10}
20 км 9/9 330 м
[Cu Sc]
+7.3 +5.5 88 +4 +4 1010.4 1008.7
21 22.06 СЗ 1 20 км 6/3 300 м
[Sc Ac trans]
+6.2 +4.6 89 +5 +5 1011.1 1009.4
00 23.06 Ю 1 20 км 8/4 300 м
[Cu med, cong Ac trans]
+7.0 +5.1 88 +6 +6 1011.3 1009.6
03 23.06 штиль 0 20 км 9/3 600 м
[Sc Ac trans Ci fib]
+7.0 +5.0 87 +6 +8 1011.8 1010.1 +6.2
06 23.06 В 6 20 км 8/0
[Ac trans]
+12.5 +4.3 57 +10 +12 1011.9 1010.2
09 23.06 ЮВ 12
{17}
20 км 8/0
[Ac trans Ci fib]
+12.4 +5.6 63 +9 +9 1011.2 1009.5
12 23.06 В 13
{17}
20 км 4/0
[Ci fib]
+12.0 +5.8 66 +8 +8 1011.5 1009.8
15 23.06 ЮВ 7
{15}
20 км 3/0
[Ci fib]
+10.2 +4.3 67 +7 +7 1012.2 1010.5 +12.7

 

Местоположение метеостанции Малые Кармакулы (Архангельская область, Россия): широта 72.36 долгота 52.71 высота над уровнем моря 14 м.

В архиве по умолчанию представлена погода в Малых Кармакулах за последнюю неделю. Архивные данные за месяц целиком и за предыдущие месяцы, начиная с января 2011 года, Вы можете получить, выбрав интересующий диапазон дат из раскрывающегося списка и нажав кнопку "Ввод!".


*Определитесь, кто Вы:
робот инопланетянин человек

Внимание! Время в таблицах - всемирное. Для получения местного времени необходимо прибавить поправку, которая в Малых Кармакулах равна 3 ч.

Смотрите также архив погоды в соседних городах и на ближайших метеорологических станциях:

Погода в Имени Федорова (Ненецкий АО, Россия) (310 км)
Погода на Колгуевом Острове (Ненецкий АО, Россия) (341 км)
Погода в Ходоварихе (Ненецкий АО, Россия) (383 км)
Погода на Мысе Белый Нос (Ненецкий АО, Россия) (409 км)
Погода в Бугрино (Ненецкий АО, Россия) (415 км)
Погода в Амдерме (Ненецкий АО, Россия) (433 км)
Погода в Сенгейском Шаре (Ненецкий АО, Россия) (435 км)
Погода на Мысе Константиновском (Ненецкий АО, Россия) (436 км)
Погода в Варандее (Ненецкий АО, Россия) (440 км)
Погода в Нарьян-Маре (Ненецкий АО, Россия) (526 км)

Пояснения к столбцам:

Ветер - указаны скорость ветра в м/с - средняя за 10 мин, порывы в срок и между сроками (в фигурных скобках) и направление, откуда дует ветер: С - северный, СВ - северо-восточный, В - восточный, ЮВ - юго-восточный, Ю - южный, ЮЗ - юго-западный, З - западный, СЗ - северо-западный.
Видимость - горизонтальная дальность видимости в метрах или километрах. При видимости от 1 до 10 км при отсутствии осадков обычно наблюдается дымка, при ухудшении видимости до 1 км и менее - туман. В сухую погоду видимость может ухудшаться дымом, пылью или мглою.
Явления - указаны атмосферные явления, наблюдавшиеся в срок или в последний час перед сроком; фигурными скобками обозначены явления, наблюдавшиеся между сроками (за 1-3 часа до срока); квадратными скобками обозначены град или гололедные отложения с указанием их диаметра в мм.
Облачность - указаны через наклонную черту общая и нижняя облачность в баллах и высота нижней границы облаков в метрах; квадратными скобками обозначены формы облаков: Ci - перистые, Cs - перисто-слоистые, Cc - перисто-кучевые, Ac - высококучевые, As - высокослоистые, Sc - слоисто-кучевые, Ns - слоисто-дождевые, Cu - кучевые, Cb - кучево-дождевые. Подробнее классификацию облаков см. в Атласе облаков (PDF).
T - Температура воздуха - температура, измеренная на высоте 2 м над землей.
Td - Температура точки росы - температура, при понижении до которой содержащийся в воздухе водяной пар достигнет насыщения.
f - Относительная влажность воздуха - влажноcть воздуха, измеренная на высоте 2 м над землей.
Te - Эффективная температура - температура, которую ощущает одетый по сезону человек в тени. Характеристика душности погоды. При расчете учитывается влияние влажности воздуха и скорости ветра на теплоощущения человека.
Tes - Эффективная температура на солнце - температура, которую ощущает человек, с поправкой на солнечный нагрев. Характеристика знойности погоды. Зависит от высоты солнца над горизонтом, облачности и скорости ветра. Ночью, в пасмурную погоду, а также при ветре 12 м/с и более поправка равна нулю.
P - Атмосферное давление - приведенное к уровню моря атмосферное давление.
Po - Атмосферное давление - измеренное на уровне метеостанции атмосферное давление.
Tmin - Минимальная температура - минимум температуры воздуха на высоте 2 м над землей.
Tmax - Максимальная температура - максимум температуры воздуха на высоте 2 м над землей.
R - Количество осадков - Количество выпавших осадков за период времени, мм. При наведении курсора мыши на число - период времени, за который выпало указанное количество осадков.
R24 - Количество осадков - Количество выпавших осадков за 24 часа, мм.
S - Снежный покров - Высота снежного покрова, см. При наведении курсора мыши на число - состояние снежного покрова и степень покрытия местности в баллах.